Location: Briis
(48.6240°N, 2.1211°E)
Time: 03:09:10
(UTC+00:00)

ARIANE 5 R/B - Pass Details

Date: 25 September 2020
Orbit: 748 x 795 km, 98.6° (Epoch: 22 October)

Event Time Altitude Azimuth Distance (km) Brightness Sun altitude
Rises 01:43:35 0° 26° (NNE) 3,247 6.7 -35.8°
Reaches altitude 10° 01:46:26 10° 41° (NE) 2,306 5.8 -35.5°
Enters shadow 01:50:05 22° 88° (E) 1,624 4.5 -35.1°
